SCP
0 0 1 0 0 0 0 0 0 0 0 0 0 0 0 0 0 0 0 1 1 2 2 3 3 3 2 2 2 2 2 2 2 2 2 2 3 3 2 2 2 2 2
1 1 1 1 0 0 0 0 0 0 0 0 0 0 0 0 0 0 0 1 1 2 2 3 3 3 2 2 3 3 2 2 2 2 2 3 3 3 3 3 3 2 2
1 1 1 1 0 0 0 0 0 0 0 0 0 0 0 0 0 0 0 0 1 1 2 2 3 3 2 2 2 2 2 2 2 3 3 3 3 3 3 3 3 3 3
1 1 1 1 0 0 0 0 0 0 0 0 0 0 0 0 0 0 0 0 0 1 1 2 2 2 2 2 2 2 2 2 2 2 2 3 3 3 3 3 3 3 3
1 1 1 0 0 0 0 0 0 0 0 0 0 0 0 0 0 0 0 0 0 0 0 1 2 2 2 2 2 2 2 2 2 2 2 2 2 2 3 3 3 3 3
1 1 1 0 0 0 0 0 0 0 0 0 0 0 0 0 0 0 0 0 0 0 0 0 1 1 1 1 1 1 1 1 1 1 1 1 1 1 2 2 1 2 2
2 2 1 0 0 0 0 0 0 0 0 0 0 0 0 0 0 0 0 0 0 0 0 0 0 0 0 0 0 0 1 0 0 0 0 1 1 1 1 1 1 1 1
2 1 1 0 0 0 0 0 0 0 0 0 0 0 0 0 0 0 0 0 0 0 0 0 0 0 0 0 0 0 0 0 0 0 0 0 1 1 1 1 1 1 1
1 1 0 0 0 0 0 0 0 0 0 0 0 0 0 0 0 0 0 0 0 0 0 0 0 0 0 0 0 0 0 0 0 0 0 0 1 1 1 0 0 0 0
0 0 0 0 0 0 0 0 0 0 0 0 0 0 0 0 0 0 0 0 0 0 0 0 0 0 0 0 0 0 0 0 0 0 1 1 1 0 0 0 0 0 0
0 0 0 0 0 0 0 0 0 0 0 0 0 0 0 0 0 0 0 0 0 0 0 0 0 0 0 0 0 0 0 0 0 0 0 1 1 0 0 0 0 0 0
0 0 0 0 0 0 0 0 0 0 0 0 0 0 0 0 0 0 0 0 0 0 0 0 0 0 0 0 0 0 0 0 0 0 0 0 0 0 0 0 0 0 0
0 0 0 0 0 0 0 0 0 0 0 0 0 0 0 0 0 0 0 0 0 0 0 0 0 0 0 0 0 0 0 0 0 0 0 0 0 0 0 0 0 0 1
0 0 0 0 0 0 0 0 0 0 0 0 0 0 0 0 0 0 0 0 0 0 0 0 0 0 0 0 0 0 0 0 0 0 0 0 0 0 0 0 0 1 1
0 0 0 0 0 0 0 0 0 0 0 0 0 0 0 0 0 0 0 0 0 0 0 0 0 0 0 0 0 0 0 0 0 0 0 0 0 0 0 0 0 0 1
0 0 0 0 0 0 0 0 0 0 0 0 0 0 0 0 0 0 0 0 0 0 0 0 0 0 0 0 0 0 0 0 0 0 0 0 0 0 0 0 0 0 0
0 0 0 0 0 0 0 0 0 0 0 0 0 0 0 0 0 0 0 0 0 0 0 0 0 0 0 0 0 0 0 0 0 0 0 0 0 0 0 0 0 0 0
0 0 0 0 0 0 0 0 0 0 0 0 0 0 0 0 0 0 0 0 0 0 0 0 0 0 0 0 0 0 0 0 0 0 0 0 0 0 0 0 0 0 0
0 0 0 0 0 0 0 0 0 0 0 0 0 0 0 0 0 0 0 0 0 0 0 0 0 0 0 0 0 0 0 0 0 0 0 0 0 0 0 0 0 0 0
0 0 0 0 0 0 0 0 0 0 0 0 0 0 0 0 0 0 0 0 0 0 0 0 0 0 0 0 0 0 0 0 0 0 0 0 0 0 0 0 0 0 0
0 0 0 0 0 0 0 0 0 0 0 0 0 0 0 0 0 0 0 0 0 0 0 0 0 0 0 0 0 0 0 0 0 0 0 0 0 0 0 0 0 0 0
0 0 0 0 0 0 0 0 0 0 0 0 0 0 0 0 0 0 0 0 0 0 0 0 0 0 0 0 0 0 0 0 0 0 0 0 0 0 0 0 0 0 0
0 0 0 0 0 0 0 0 0 0 0 0 0 0 0 0 0 0 0 0 0 0 0 0 0 0 0 0 0 0 0 0 0 0 0 0 0 0 0 0 0 0 0
0 0 0 0 0 0 0 0 0 0 0 0 0 0 0 0 0 0 0 0 0 0 0 0 0 0 0 0 0 0 0 0 0 0 0 0 0 0 0 0 0 0 0
0 0 0 0 0 0 0 0 0 0 0 0 0 0 0 0 0 0 0 0 0 0 0 0 0 0 0 0 0 0 0 0 0 0 0 0 0 0 0 0 0 0 0
0 0 0 0 0 0 0 0 0 0 0 0 0 0 0 0 0 0 0 0 0 0 0 0 0 0 0 0 0 0 0 0 0 0 0 0 0 0 0 0 0 0 0
Wind_Speed
4 3 2 1 1 1 1 1 1 2 3 3 3 3 3 3 3 2 2 4 3 3 4 6 7 7 7 7 7 7 7 6 5 4 3 2 2 2 2 2 3 4 4
4 3 3 2 2 2 2 2 2 3 3 3 5 5 4 4 4 4 3 4 7 6 6 6 7 8 8 8 7 7 6 6 5 5 4 4 3 3 3 3 3 4 4
5 4 3 2 2 3 3 3 4 3 3 4 5 5 4 4 4 5 4 4 4 7 7 6 5 6 7 8 7 7 7 6 6 6 5 5 5 4 4 4 4 4 4
5 4 3 3 3 4 4 4 3 3 3 3 3 3 4 4 5 5 5 5 4 4 7 10 8 6 4 3 4 5 5 5 6 6 6 6 6 6 6 6 5 5 5
5 4 3 3 4 4 3 4 3 3 3 3 3 3 4 4 4 5 6 7 7 6 6 9 12 12 11 9 7 5 4 5 5 6 6 6 6 6 6 6 6 6 6
6 6 4 5 5 5 4 4 4 4 3 2 3 4 4 4 4 5 6 6 7 8 8 8 7 9 13 13 11 9 8 7 7 8 8 8 8 7 7 7 8 8 8
6 6 5 5 5 4 4 5 4 4 3 1 2 2 3 4 5 4 4 5 7 7 7 7 6 5 5 11 11 10 9 9 9 9 10 10 9 9 9 9 9 10 10
6 6 7 6 5 5 5 4 4 3 2 2 2 2 1 1 2 3 3 4 4 4 5 5 5 4 3 3 6 10 10 10 10 11 12 12 12 11 11 12 12 13 13
5 5 6 6 5 5 5 4 5 5 3 2 2 2 2 1 1 1 1 2 2 2 2 2 2 2 2 1 2 6 9 10 11 12 13 14 14 13 14 15 16 16 17
6 6 6 6 6 5 5 4 4 3 4 2 2 3 2 2 1 1 2 2 2 2 2 2 2 2 2 2 4 7 10 11 13 14 14 15 15 16 16 17 18 19 20
5 6 6 6 6 5 6 5 5 4 3 3 2 2 2 2 1 1 3 3 3 3 3 4 4 4 4 4 4 8 13 14 15 16 16 17 18 18 19 19 20 21 21
4 5 6 5 5 5 5 5 4 5 3 3 2 2 2 2 2 2 3 4 5 4 4 4 5 5 5 5 8 13 16 16 16 17 17 18 19 20 20 21 21 22 23
3 4 5 5 4 5 5 5 4 4 3 3 2 1 2 2 2 2 3 4 5 4 4 4 5 5 6 5 7 15 16 17 17 17 18 19 20 21 21 22 22 22 23
4 4 5 5 5 5 5 4 4 3 3 2 2 1 1 1 2 2 3 3 6 5 4 6 4 5 6 6 9 15 11 17 19 19 19 20 21 22 22 22 23 23 22
5 6 6 6 5 5 5 5 4 4 3 3 2 2 1 1 1 2 3 3 4 8 8 6 5 5 6 7 10 10 10 16 19 20 20 21 21 22 22 23 23 23 23
6 6 6 6 6 6 6 5 4 4 5 3 2 2 2 2 2 2 3 3 4 6 8 5 6 8 10 10 14 12 11 19 20 20 21 20 20 21 22 22 23 23 23
6 7 7 7 7 7 6 6 5 5 4 4 3 3 4 4 3 3 3 3 4 5 9 9 7 8 10 12 12 12 11 11 11 19 21 21 21 21 21 22 22 22 22
7 7 7 8 7 7 6 6 5 5 4 4 4 4 5 4 5 5 4 5 6 6 7 11 9 9 10 12 12 13 11 10 10 16 21 21 22 22 21 20 20 20 19
7 7 7 7 7 6 5 5 4 4 4 4 4 5 6 6 6 6 6 6 6 7 7 8 10 8 8 9 10 11 12 10 11 13 17 19 20 20 20 19 18 18 16
7 7 7 6 5 5 4 4 4 4 4 5 5 6 6 7 7 8 7 7 7 8 8 8 9 9 9 9 8 8 9 8 9 10 13 14 16 19 19 19 18 18 16
7 6 6 5 4 3 3 3 3 4 5 7 7 7 7 10 11 8 7 8 8 7 7 7 8 8 8 7 7 6 8 8 10 8 8 8 9 8 10 13 16 17 15
5 5 4 4 3 3 5 6 6 4 6 7 8 8 9 9 10 12 14 14 13 10 9 8 7 9 9 9 8 7 8 8 6 4 5 8 7 8 8 7 12 14 14
4 4 4 4 3 4 6 8 10 6 6 7 7 8 7 8 10 8 11 14 13 14 13 9 9 9 10 9 8 8 7 8 8 6 6 7 6 7 7 7 12 13 12
3 3 3 3 3 5 8 9 11 7 7 7 8 8 8 9 8 9 9 10 10 9 10 8 8 9 9 8 8 7 8 8 8 7 4 5 5 6 7 6 8 10 11
3 3 3 3 3 5 8 10 10 6 7 9 8 8 8 8 10 12 9 9 10 9 9 10 11 11 11 11 8 6 6 6 6 5 2 3 4 6 6 5 5 7 8
3 3 4 4 4 5 8 10 10 5 7 8 8 8 9 9 12 12 8 8 9 9 10 10 9 8 7 7 7 5 5 5 5 4 3 4 4 4 5 4 4 4 4
Wind_Direction
186 183 182 172 159 132 120 89 64 57 58 53 52 57 51 42 42 37 5 355 347 315 280 261 252 248 245 239 233 227 222 216 210 201 190 189 202 221 234 247 253 254 256
181 177 175 167 152 135 121 111 97 86 74 67 57 52 48 41 37 34 25 11 7 355 331 304 284 272 265 257 244 235 229 222 219 216 210 209 213 222 233 243 255 259 259
178 170 164 153 138 122 114 100 88 80 78 69 59 49 44 39 40 36 30 23 11 7 1 351 329 301 278 267 255 243 237 232 232 232 231 230 229 230 233 242 251 259 262
168 156 146 136 122 112 109 103 89 77 64 64 61 44 35 34 40 42 44 41 36 30 25 27 26 20 359 330 294 268 252 251 253 253 252 250 245 241 242 246 249 255 260
150 136 128 120 114 102 96 105 79 83 75 64 74 58 38 40 38 51 53 51 50 47 43 37 38 37 35 27 15 359 331 307 296 287 279 273 269 262 255 251 248 248 252
135 128 120 113 112 108 101 98 95 75 77 66 75 66 48 47 50 51 54 55 54 56 53 48 40 34 35 31 22 12 357 336 320 307 295 289 287 281 269 260 252 248 250
133 129 129 124 121 117 120 119 106 83 57 39 90 74 49 49 57 49 49 58 56 53 57 53 46 38 27 27 17 7 357 339 327 317 306 301 294 285 273 265 260 256 251
132 138 138 132 125 117 112 108 111 106 66 33 107 113 81 41 42 40 35 58 54 46 49 49 45 38 30 21 4 1 355 345 333 317 308 305 300 290 277 267 261 258 254
115 116 120 121 122 119 119 115 119 126 122 57 39 124 138 202 312 334 357 30 20 35 25 9 22 10 1 354 337 338 333 328 322 315 308 303 300 295 283 274 267 261 257
113 116 122 122 119 114 115 111 101 110 121 117 69 47 78 134 158 308 306 311 327 330 321 315 308 296 289 283 289 304 307 308 306 304 302 300 296 291 287 279 272 267 263
106 115 116 115 112 111 111 108 106 103 107 125 128 115 90 69 92 193 277 302 308 280 274 274 272 273 272 266 268 278 294 298 296 294 293 293 291 287 283 281 277 270 264
99 105 108 106 106 109 113 112 110 107 104 109 114 126 146 158 185 201 243 270 285 282 273 264 261 264 267 265 272 289 294 297 296 292 290 289 288 286 283 280 278 275 268
114 110 108 105 105 105 106 106 103 103 109 116 134 155 179 197 190 198 233 264 272 280 278 267 257 262 268 266 273 286 293 296 295 292 289 286 285 283 281 278 276 275 273
115 111 106 102 100 101 101 97 95 95 94 99 110 138 199 223 208 211 230 266 286 280 267 272 274 263 268 275 275 283 286 290 291 289 286 283 281 280 278 277 275 273 272
106 99 98 96 90 87 89 88 77 68 68 57 48 36 351 297 267 252 246 244 270 291 292 282 279 278 284 283 278 281 278 282 286 286 285 283 281 279 277 275 273 271 269
96 99 91 86 80 75 75 77 74 68 66 45 27 18 349 315 304 292 274 261 250 270 287 282 280 286 289 290 289 289 284 286 286 286 285 283 281 279 276 274 272 270 267
89 89 87 83 79 76 77 77 71 64 57 34 15 358 333 317 311 307 294 282 270 264 282 291 281 283 282 284 289 289 286 282 279 280 282 282 280 278 277 275 273 270 267
77 83 86 86 84 79 74 72 60 47 34 13 354 340 329 325 314 303 296 289 282 271 274 292 296 292 285 285 286 286 286 282 279 280 282 281 280 278 278 276 273 269 266
77 81 84 85 82 77 70 63 55 37 14 349 333 323 314 312 305 300 295 287 282 281 272 283 293 292 289 288 288 285 284 281 281 280 281 279 279 280 280 278 275 270 263
79 78 80 80 76 70 61 48 36 15 351 335 324 313 307 300 291 291 290 286 287 287 285 284 289 293 293 292 286 288 293 290 289 287 282 280 279 281 280 278 274 269 260
78 81 82 79 71 65 51 38 14 354 340 331 324 318 310 306 308 308 307 304 301 293 291 291 293 296 297 301 299 291 293 297 291 281 283 284 281 277 276 275 274 269 264
71 72 68 61 47 37 17 13 5 344 332 324 319 318 314 309 315 318 314 311 308 303 301 295 295 297 299 300 299 298 298 301 297 284 289 291 284 278 275 265 265 264 261
64 59 48 42 29 1 5 2 355 346 326 315 311 311 312 311 315 308 309 311 308 302 298 296 296 299 300 303 302 301 300 302 297 294 291 289 287 285 282 273 268 263 259
55 44 34 26 16 3 5 358 349 341 321 314 309 304 302 306 310 315 312 309 307 303 298 293 286 290 293 297 298 297 296 296 288 286 287 286 296 296 294 285 271 265 263
47 34 29 21 10 351 353 352 352 333 324 321 316 312 310 309 311 317 317 312 311 311 310 300 293 291 292 294 298 300 304 307 308 307 318 294 292 300 297 290 283 273 270
46 36 29 18 7 347 341 345 347 332 326 324 321 319 318 317 317 319 317 309 311 314 317 319 317 314 310 308 311 305 309 311 313 305 329 313 290 304 300 291 293 291 278